Погода в Кирове

Россия / Еврейская автономная область     47°51′16″N   132°03′35″E
темп.,
°C
ветер,
м/с
пор.,
м/с
влажн.,
%
обл.,
%
осадки,
мм/ч
давл.,
гПа
погр.,
м
23 апреля, пт
пт2301:00+17ю3844100 0.0 1018123
04:00+14ю2251100 0.0 101911
07:00+13ю2354100 0.1 101953
10:00+18сз4641100 0.1 1021893
13:00+19сз7843100 0.0 10221598
16:00+15з7862100 0.0 1022778
19:00+12зсз5960100 0.1 1023536
22:00+11сз61040100 0.1 1024695
24 апреля, сб
сб2401:00+10сз5929100 0.0 1024834
04:00+8сз51027100 0.0 1025862
07:00+5сз6103314 0.0 1025631
10:00+7ссз792699 0.0 1025957
13:00+12ссз79180 0.0 10231856
16:00+13сз912190 0.0 10212519
19:00+11сз813230 0.0 10212609
22:00+8зсз49315 0.0 1020201
25 апреля, вс
вс2501:00+7зсз51035100 0.0 1019279
04:00+6зсз714405 0.0 1018733
07:00+4ссз813572 0.0 10191264
10:00+7с910263 0.0 10212056
13:00+10с68172 0.0 10212852
16:00+12ссз69130 0.0 10202868
19:00+12сз57160 0.0 10192615
22:00+7зсз510250 0.0 1021233
26 апреля, пн
пн2601:00+5сз36290 0.0 102191
04:00+4з35325 0.0 102066
07:00+3зюз37345 0.0 1019142
10:00+11зюз4520100 0.0 1018684
13:00+15зюз341912 0.0 10151685
16:00+17ююз461634 0.0 10122061
19:00+17ююз461731 0.0 1011604
22:00+13ю4526100 0.0 101066
27 апреля, вт
вт2701:00+11ююв51135100 0.0 1009223
04:00+9ююв61350100 0.0 1007296
07:00+9ю51257100 0.0 1007310
10:00+16ююз693782 0.0 1006844
13:00+21ююз7103397 0.0 10042597
16:00+21ююз81230100 0.0 10012640
19:00+12ююз61281100 1.8 1002906
22:00+13ююз61270100 2.8 10021164